Home   Weather   Famagusta   Past weeks

Flag for Cyprus Past Weather in Famagusta, Northern Cyprus, Cyprus — Yesterday and Last 2 Weeks

Now
54 °F

Passing clouds.


Feels Like: 52 °F
Forecast: 53 / 66 °F
Wind: 7 mph from Northwest

Location: Larnaca Airport

Current Time: Jan 24, 2017 at 10:42:18 pm

Latest Report: Jan 24, 2017 at 10:00 pm


Visibility: N/A

Pressure: 30.04 "Hg

Humidity: 67%

Dew Point: 43 °F

Location of FamagustaLocation

Past Weather in Famagusta — Graph

°F

Famagusta Temperature Yesterday

Maximum temperature yesterday: 61 °F (at 1:00 pm)
Minimum temperature yesterday: 39 °F (at 7:00 am)
Average temperature yesterday: 50 °F

High & Low Weather Summary for the Past Weeks

 TemperatureHumidityPressure
High64 °F (Jan 18, 2:00 pm)100% (Jan 11, 1:00 am)30.33 "Hg (Jan 11, 1:00 am)
Low39 °F (Jan 9, 10:30 pm)34% (Jan 22, 2:00 pm)29.95 "Hg (Jan 14, 3:00 pm)
Average53 °F69%30.13 "Hg
* Reported Jan 9 9:00 pm — Jan 24 9:30 pm, Famagusta, Weather by CustomWeather, © 2017

Note: Actual official high and low records may vary slightly from our data, if they occured in-between our weather recording intervals... More about our weather records

Advertising

Famagusta Weather History for the Previous 24 Hours

Scroll right to see more
 ConditionsComfort  
Time TempWeatherWind HumidityBarometerVisibility
9:30 pm
Tue, Jan 24
54 °FPassing clouds.8 mph67%30.04 "HgN/A
9:00 pm55 °FPassing clouds.7 mph63%30.04 "HgN/A
8:30 pm54 °FPassing clouds.8 mph67%30.04 "HgN/A
8:00 pm55 °FPassing clouds.12 mph63%30.04 "HgN/A
7:30 pm57 °FPassing clouds.10 mph55%30.04 "HgN/A
7:00 pm59 °FPassing clouds.12 mph51%30.04 "HgN/A
6:30 pm59 °FPassing clouds.13 mph51%30.04 "HgN/A
6:00 pm59 °FPassing clouds.14 mph51%30.04 "HgN/A
5:30 pm61 °FPassing clouds.13 mph48%30.07 "HgN/A
5:00 pm61 °FPassing clouds.15 mph48%30.07 "HgN/A
4:30 pm63 °FPassing clouds.15 mph49%30.07 "HgN/A
4:00 pm63 °FPassing clouds.14 mph45%30.07 "HgN/A
3:30 pm63 °FPassing clouds.13 mph45%30.07 "HgN/A
3:00 pm63 °FPassing clouds.12 mph45%30.09 "HgN/A
2:30 pm61 °FPassing clouds.9 mph45%30.12 "HgN/A
2:00 pm63 °FPassing clouds.14 mph42%30.12 "HgN/A
1:30 pm63 °FPassing clouds.15 mph42%30.09 "HgN/A
1:00 pm63 °FPassing clouds.14 mph45%30.12 "HgN/A
12:30 pm61 °FSunny.10 mph45%30.15 "Hg10 mi
12:00 pm59 °FSunny.7 mph51%30.18 "Hg10 mi
11:30 am61 °FSunny.9 mph48%30.21 "Hg10 mi
11:00 am59 °FSunny.10 mph51%30.21 "Hg10 mi
10:30 am57 °FSunny.10 mph59%30.18 "Hg10 mi
10:00 am55 °FSunny.8 mph59%30.18 "Hg10 mi
9:30 am54 °FSunny.7 mph58%30.18 "Hg10 mi
9:00 am50 °FSunny.7 mph62%30.18 "Hg10 mi
8:30 am48 °FSunny.8 mph66%30.18 "Hg10 mi
8:00 am48 °FSunny.7 mph66%30.18 "Hg10 mi
7:30 am48 °FClear.6 mph66%30.18 "Hg10 mi
7:00 am46 °FClear.8 mph66%30.15 "Hg10 mi
6:30 am48 °FClear.8 mph66%30.15 "Hg10 mi
6:00 am48 °FClear.9 mph66%30.15 "Hg10 mi
5:30 am48 °FClear.7 mph66%30.15 "Hg10 mi
5:00 am48 °FClear.9 mph62%30.18 "Hg10 mi
4:30 am48 °FClear.10 mph62%30.18 "Hg10 mi
4:00 am48 °FClear.8 mph62%30.18 "Hg10 mi
3:30 am48 °FClear.8 mph62%30.18 "Hg10 mi
3:00 am48 °FClear.8 mph62%30.18 "Hg10 mi
2:30 am48 °FClear.8 mph62%30.21 "Hg10 mi
2:00 am48 °FClear.9 mph62%30.21 "Hg10 mi
1:30 am48 °FClear.7 mph62%30.21 "Hg10 mi
1:00 am48 °FClear.7 mph62%30.21 "Hg10 mi
12:30 am48 °FClear.6 mph66%30.21 "Hg10 mi
12:00 am48 °FClear.8 mph71%30.21 "Hg10 mi
11:30 pm
Mon, Jan 23
48 °FClear.7 mph76%30.21 "Hg10 mi
11:00 pm48 °FClear.8 mph76%30.24 "Hg10 mi
10:30 pm48 °FClear.8 mph76%30.24 "Hg10 mi
10:00 pm48 °FClear.7 mph76%30.24 "Hg10 mi
Weather by CustomWeather, © 2017

See weather overviewHow to use our weather pages